Location: Krasnoyarskiy
(51.1133°N, 71.6497°E)
Time: 21:51:31
(UTC+00:00)

Cosmos 1980 Rocket - Pass Details

Date: 27 September 2022
Orbit: 829 x 849 km, 71.0° (Epoch: 03 December)

Event Time Altitude Azimuth Distance (km) Brightness Sun altitude
Rises 00:12:12 0° 328° (NNW) 3,385 5.1 -9.4°
Reaches altitude 10° 00:14:40 10° 325° (NW) 2,447 4.4 -9.0°
Maximum altitude 00:20:11 62° 246° (WSW) 936 2.2 -8.2°
Drops below altitude 10° 00:25:40 10° 167° (SSE) 2,432 4.7 -7.3°
Sets 00:28:07 0° 164° (SSE) 3,363 5.5 -6.9°
